Hourly Data Report for October 01, 2017

All times are specified in Local Standard Time (LST). Add 1 hour to adjust for Daylight Saving Time where and when it is observed.

SARNIA
ONTARIO

42°59'58.000" N
82°18'32.000" W
181.40 m
6127510
71704
YZR

Download Data

Hourly Data (October 2017)
Hourly Data Report for October 1, 2017
Temp Definition
°C
Dew Point Temp Definition
°C
Rel Hum Definition
%
Wind Dir Definition
10's deg

Wind Spd Definition
km/h
Visibility Definition
km
Stn Press Definition
kPa
Hmdx Definition


Wind Chill Definition


Weather Definition


TIME
00:00 Legend Double Dagger 6.5 5.2 92 21 5 16.1 100.76     LegendNANA
01:00 Legend Double Dagger 5.2 4.6 96 22 4 16.1 100.76     LegendNANA
02:00 Legend Double Dagger 5.0 4.4 96 18 4 16.1 100.73     LegendNANA
03:00 Legend Double Dagger 4.4 4.0 97 19 4 16.1 100.71     LegendNANA
04:00 Legend Double Dagger 4.6 4.0 96 LegendMM 4 16.1 100.71     LegendNANA
05:00 Legend Double Dagger 3.3 3.0 98 14 4 16.1 100.71     LegendNANA
06:00 Legend Double Dagger 3.6 3.5 99   0 16.1 100.72     LegendNANA
07:00 Legend Double Dagger 4.0 3.6 97 15 4 16.1 100.74     LegendNANA
08:00 Legend Double Dagger 8.1 6.8 91 14 5 16.1 100.74     LegendNANA
09:00 Legend Double Dagger 12.9 8.9 76 14 9 16.1 100.75     LegendNANA
10:00 Legend Double Dagger 15.1 8.3 64 14 21 16.1 100.69     LegendNANA
11:00 Legend Double Dagger 16.2 7.9 58 15 15 16.1 100.64     LegendNANA
12:00 Legend Double Dagger 17.3 6.6 49 16 18 16.1 100.61     LegendNANA
13:00 Legend Double Dagger 18.1 6.4 46 15 13 16.1 100.52     LegendNANA
14:00 Legend Double Dagger 19.1 5.3 40 16 17 16.1 100.43     LegendNANA
15:00 Legend Double Dagger 19.1 5.8 41 14 17 16.1 100.36     LegendNANA
16:00 Legend Double Dagger 18.9 4.5 38 15 15 16.1 100.31     LegendNANA
17:00 Legend Double Dagger 18.0 5.0 42 15 11 16.1 100.31     LegendNANA
18:00 Legend Double Dagger 15.3 5.3 51 16 11 16.1 100.31     LegendNANA
19:00 Legend Double Dagger 12.5 5.9 64 15 11 16.1 100.34     LegendNANA
20:00 Legend Double Dagger 10.3 5.5 72 14 8 16.1 100.34     LegendNANA
21:00 Legend Double Dagger 9.1 5.3 77 17 4 16.1 100.34     LegendNANA
22:00 Legend Double Dagger 8.5 5.2 80 14 9 16.1 100.33     LegendNANA
23:00 Legend Double Dagger 8.6 5.7 82 14 11 16.1 100.35     LegendNANA

Notes on Data Quality.

Legend

  • E = Estimated
  • M = Missing
  • NA = Not Available
  • ‡ = Partner data that is not subject to review by the National Climate Archives
Date modified: